Location: Unspecified
(0.0000°N, 1.0000°E)
Time: 12:38:28
(UTC+02:00)

Amateur Radio Satellites - All Passes

Search period start: 01 April 2015 12:08
Search period end: 02 April 2015 12:08
Location: Unspecified, 0.0000°N, 1.0000°E

Satellite Date Start Highest point End Downlink Frequencies (MHz)
Time Altitude Azimuth
HUMSAT D 01 Apr 12:08:32 12:12:51 88° 282° (WNW) 12:17:13 437.325/437.525
UKube-1 01 Apr 12:18:21 12:22:24 40° 281° (WNW) 12:26:27 .
50 SAT 01 Apr 12:21:00 12:25:04 83° 99° (E) 12:29:09 437.505
UNISAT 6 01 Apr 12:23:42 12:27:57 65° 259° (WSW) 12:32:09 437.425
QB50P1 01 Apr 12:26:14 12:30:24 55° 78° (ENE) 12:34:32 145.935-145.965
DUCHIFAT 1 01 Apr 12:26:21 12:30:30 53° 79° (ENE) 12:34:36 145.980
TIGRISAT 01 Apr 12:32:39 12:36:48 49° 259° (W) 12:40:53 435.000
DX 1 01 Apr 12:33:05 12:36:36 24° 281° (W) 12:40:03 434.975-435.025
ESTCUBE 1 01 Apr 12:33:30 12:37:46 45° 101° (ESE) 12:42:04 437.505/2401.250
QB50P2 01 Apr 12:42:01 12:46:17 83° 257° (WSW) 12:50:31 145.880/145.840
BUGSAT 1 01 Apr 12:53:22 12:57:37 89° 257° (WSW) 13:01:48 437.445
VERMONT LUNAR 01 Apr 12:56:12 12:58:24 17° 41° (NE) 13:00:42 437.305
SRMSAT 01 Apr 13:00:53 13:06:26 38° 341° (NNW) 13:11:57 437.500
ANTELSAT 01 Apr 13:05:52 13:08:43 17° 260° (W) 13:11:21 437.575/2403.000
POPSAT HIP 1 01 Apr 13:10:33 13:14:22 32° 259° (W) 13:18:06 437.405
SPROUT 01 Apr 13:13:42 13:17:09 24° 101° (E) 13:20:43 437.525
CUBEBUG 1 01 Apr 13:15:37 13:19:48 49° 281° (W) 13:23:59 437.445
NANOSAT C BR1 01 Apr 13:20:14 13:23:42 23° 259° (W) 13:27:02 145.865
VELOX 1 01 Apr 13:26:19 13:28:43 14° 280° (W) 13:30:51 145.980
POLYITAN 1 01 Apr 13:27:42 13:30:44 18° 259° (W) 13:33:35 437.675
AISAT 01 Apr 13:33:27 13:34:45 11° 280° (W) 13:35:43 437.250
JUGNU 01 Apr 13:48:37 13:51:35 14° 350° (N) 13:54:28 437.505
PHONESAT 2.4 01 Apr 14:01:13 14:04:11 25° 42° (NE) 14:07:13 2401.200-2431.200
PCSat 01 Apr 14:12:37 14:18:02 88° 285° (WNW) 14:23:27 145.827
ITUPSAT 1 01 Apr 14:17:20 14:19:33 14° 101° (E) 14:22:06 437.325
TISAT 1 01 Apr 14:27:35 14:31:21 32° 281° (W) 14:35:07 437.305
Oscar 19 01 Apr 14:28:40 14:33:00 29° 79° (E) 14:37:25 437.125/150
VERMONT LUNAR 01 Apr 14:33:09 14:36:02 25° 222° (SW) 14:38:53 437.305
YUBILEINY 01 Apr 14:38:15 14:47:03 88° 271° (W) 14:55:52 435.215
SPROUT 01 Apr 14:50:58 14:53:08 13° 280° (W) 14:55:02 437.525
SRMSAT 01 Apr 14:52:18 14:56:07 17° 347° (NNW) 14:59:50 437.500
SWISSCUBE 01 Apr 15:01:22 15:06:04 65° 102° (ESE) 15:10:48 437.505
BEESAT 01 Apr 15:03:47 15:08:29 62° 102° (ESE) 15:13:12 436.000
Gurwin Techsat 1B 01 Apr 15:09:44 15:12:46 16° 79° (E) 15:16:07 435.225
PHONESAT 2.4 01 Apr 15:39:50 15:42:28 19° 221° (SW) 15:45:01 2401.200-2431.200
ITAMSAT 1 01 Apr 15:40:15 15:45:19 52° 78° (ENE) 15:50:24 435.822/435.867
O/OREOS (USA 219) 01 Apr 15:48:22 15:52:50 80° 75° (ENE) 15:57:19 437.305
ITUPSAT 1 01 Apr 15:53:11 15:57:21 30° 281° (WNW) 16:01:27 437.325
KKS-1 01 Apr 15:59:08 16:03:15 39° 101° (E) 16:07:28 437.445
Oscar 19 01 Apr 16:08:58 16:12:15 16° 259° (W) 16:15:15 437.125/150
STARS 01 Apr 16:23:36 16:27:50 48° 102° (ESE) 16:32:09 437.465
JAS-2 01 Apr 16:29:49 16:30:44 11° 76° (ENE) 16:32:22 435.910
AO-7 01 Apr 16:39:10 16:45:32 26° 76° (ENE) 16:52:13 29.400- 29.500
SRMSAT 01 Apr 16:45:38 16:46:18 10° 356° (N) 16:46:54 437.500
Gurwin Techsat 1B 01 Apr 16:47:55 16:52:40 32° 258° (WSW) 16:57:18 435.225
HORYU 2 01 Apr 16:49:26 16:53:37 42° 78° (ENE) 16:57:48 437.375
AIST 1 01 Apr 16:59:17 17:03:28 60° 266° (W) 17:07:39
RS-15 01 Apr 17:17:47 17:26:00 25° 115° (ESE) 17:34:39 29.354- 29.394
JUGNU 01 Apr 17:29:07 17:31:51 13° 10° (N) 17:34:40 437.505
MOZHAYETS 4 01 Apr 17:56:50 18:01:09 41° 101° (E) 18:05:30
M-CUBED/EXP-1 PRIME 01 Apr 17:58:17 17:58:34 10° 102° (ESE) 17:59:14 437.505
JAS-2 01 Apr 18:09:25 18:15:27 65° 259° (WSW) 18:22:17 435.910
SO-50 01 Apr 18:11:26 18:15:49 68° 292° (WNW) 18:20:18 436.795
AO-7 01 Apr 18:30:25 18:38:12 42° 255° (WSW) 18:45:50 29.400- 29.500
SRMSAT 01 Apr 18:34:54 18:36:38 11° 7° (N) 18:38:25 437.500
GONETS M04 01 Apr 18:59:15 19:04:43 20° 96° (E) 19:10:47
AUBIESAT-1 01 Apr 19:01:38 19:06:10 79° 104° (ESE) 19:10:22 437.475
JUGNU 01 Apr 19:16:37 19:21:34 27° 17° (NNE) 19:26:34 437.505
PRISM 01 Apr 19:20:47 19:22:31 13° 100° (E) 19:24:31 437.425
RS-15 01 Apr 19:27:39 19:38:24 53° 292° (WNW) 19:48:47 29.354- 29.394
M-CUBED/EXP-1 PRIME 01 Apr 19:29:16 19:33:29 35° 286° (WNW) 19:37:23 437.505
CUBESAT XI-V 01 Apr 19:52:52 19:57:21 58° 101° (ESE) 20:01:54 437.345
CUTE-I 01 Apr 20:04:30 20:09:53 74° 257° (WSW) 20:15:14 437.470
ISS 01 Apr 20:04:57 20:08:09 55° 126° (SE) 20:11:21 145.825
Cubesat XI-IV 01 Apr 20:05:42 20:11:05 71° 257° (WSW) 20:16:25 437.490
STRAND 1 01 Apr 20:21:36 20:26:36 61° 102° (ESE) 20:31:38 437.568
SRMSAT 01 Apr 20:22:18 20:26:39 21° 15° (NNE) 20:31:04 437.500
BEESAT 3 01 Apr 20:24:26 20:26:08 13° 66° (ENE) 20:28:04 437.485
GONETS M04 01 Apr 20:53:10 21:01:30 50° 274° (W) 21:09:45
PRISM 01 Apr 20:54:37 20:57:54 22° 281° (W) 21:01:04 437.425
CUSAT 1 01 Apr 20:59:07 21:02:45 30° 100° (E) 21:05:41 437.405
JUGNU 01 Apr 21:04:52 21:10:49 70° 21° (NNE) 21:16:44 437.505
AIST 2 01 Apr 21:22:04 21:24:39 17° 66° (ENE) 21:27:23 435.215
BEESAT 2 01 Apr 21:27:04 21:31:05 88° 258° (WSW) 21:35:04 435.950
BRITE-PL 01 Apr 21:43:46 21:48:52 56° 79° (E) 21:53:32 437.365/2234.400
DOVE 4 01 Apr 21:47:21 21:50:35 20° 81° (E) 21:53:51 437.250
BEESAT 3 01 Apr 22:00:57 22:04:05 21° 247° (WSW) 22:07:05 437.485
CANX-2 01 Apr 22:03:58 22:08:02 48° 79° (E) 22:12:07 2200.000
DANDE 01 Apr 22:09:17 22:13:06 26° 271° (W) 22:16:04 436.750
SRMSAT 01 Apr 22:10:25 22:16:09 51° 20° (NNE) 22:21:55 437.500
GOMX 1 01 Apr 22:13:19 22:18:13 80° 81° (E) 22:22:47 467.674
CUTE 1.7 + AOD 2 01 Apr 22:17:14 22:21:25 68° 80° (E) 22:25:37 437.475
HO-68 01 Apr 22:27:36 22:34:46 89° 255° (WSW) 22:41:57 435.675
AAUSAT CUBESAT 2 01 Apr 22:28:42 22:32:43 49° 79° (E) 22:36:44 437.432
CUBEBUG 2 01 Apr 22:29:22 22:30:58 12° 81° (E) 22:32:52 437.445
CINEMA 3 01 Apr 22:38:04 22:42:11 41° 80° (E) 22:46:11 145.822/145.860
SEEDS 01 Apr 22:41:22 22:45:32 65° 259° (W) 22:49:40 437.485
JUGNU 01 Apr 22:54:18 22:59:54 42° 200° (SSW) 23:05:28 437.505
UKube-1 01 Apr 22:54:35 22:55:36 11° 80° (E) 22:56:57 .
COMPASS 1 01 Apr 22:58:41 23:02:41 45° 259° (W) 23:06:40 437.405
AIST 2 01 Apr 23:00:15 23:03:08 18° 247° (WSW) 23:05:50 435.215
DX 1 01 Apr 23:07:27 23:10:32 20° 79° (E) 23:13:45 434.975-435.025
TIGRISAT 01 Apr 23:12:05 23:13:28 12° 100° (E) 23:15:14 435.000
Oscar 11 01 Apr 23:19:38 23:23:56 78° 259° (WSW) 23:28:13 145.826/435.025
DELFI C3 01 Apr 23:22:05 23:26:08 82° 81° (E) 23:30:11 145.870
DOVE 4 01 Apr 23:24:56 23:28:15 18° 258° (WSW) 23:31:14 437.250
FUNcube-1 01 Apr 23:37:22 23:41:34 77° 78° (ENE) 23:45:41 145.935
ANTELSAT 01 Apr 23:41:33 23:45:42 32° 101° (E) 23:49:57 437.575/2403.000
POPSAT HIP 1 01 Apr 23:43:41 23:45:17 12° 100° (E) 23:47:12 437.405
UWE-3 01 Apr 23:51:04 23:55:08 46° 258° (WSW) 23:59:07 435.000/436.395/437.385
ZACube-1 01 Apr 23:51:39 23:55:49 62° 259° (WSW) 23:59:53 437.345
NANOSAT C BR1 01 Apr 23:51:50 23:54:26 17° 100° (E) 23:57:15 145.865
POLYITAN 1 01 Apr 23:58:41 00:01:55 22° 101° (E) 00:05:19 437.675
SRMSAT 01 Apr 23:59:34 00:05:23 58° 201° (SSW) 00:11:12 437.500
VELOX 1 02 Apr 00:00:31 00:04:38 37° 79° (E) 00:08:45 145.980
CUBEBUG 2 02 Apr 00:04:08 00:07:37 24° 259° (W) 00:10:56 437.445
AISAT 02 Apr 00:06:35 00:10:53 47° 79° (ENE) 00:15:11 437.250
HUMSAT D 02 Apr 00:14:38 00:18:44 71° 259° (WSW) 00:22:47 437.325/437.525
50 SAT 02 Apr 00:20:24 00:24:18 80° 79° (E) 00:28:11 437.505
UKube-1 02 Apr 00:27:48 00:31:39 30° 258° (WSW) 00:35:25 .
DUCHIFAT 1 02 Apr 00:32:33 00:36:45 67° 102° (ESE) 00:41:00 145.980
VERMONT LUNAR 02 Apr 00:32:36 00:34:10 13° 140° (SE) 00:35:51 437.305
QB50P1 02 Apr 00:32:47 00:37:00 70° 102° (ESE) 00:41:16 145.935-145.965
UNISAT 6 02 Apr 00:37:04 00:41:33 44° 281° (W) 00:46:02 437.425
DX 1 02 Apr 00:43:38 00:46:40 18° 259° (W) 00:49:29 434.975-435.025
JUGNU 02 Apr 00:45:21 00:49:20 18° 194° (SSW) 00:53:12 437.505
TIGRISAT 02 Apr 00:45:49 00:50:07 35° 281° (W) 00:54:22 435.000
ESTCUBE 1 02 Apr 00:47:44 00:52:17 75° 78° (ENE) 00:56:49 437.505/2401.250
QB50P2 02 Apr 00:48:53 00:53:06 65° 281° (WNW) 00:57:22 145.880/145.840
BUGSAT 1 02 Apr 00:57:05 01:01:08 79° 283° (WNW) 01:05:16 437.445
TISAT 1 02 Apr 01:00:33 01:01:58 12° 80° (E) 01:03:41 437.305
PCSat 02 Apr 01:07:23 01:11:00 19° 69° (ENE) 01:14:50 145.827
POPSAT HIP 1 02 Apr 01:17:29 01:21:04 26° 281° (W) 01:24:36 437.405
YUBILEINY 02 Apr 01:17:58 01:23:55 22° 84° (E) 01:30:23 435.215
ANTELSAT 02 Apr 01:20:12 01:22:24 13° 280° (W) 01:24:16 437.575/2403.000
SPROUT 02 Apr 01:21:44 01:25:35 32° 79° (E) 01:29:26 437.525
CUBEBUG 1 02 Apr 01:26:24 01:30:29 35° 259° (W) 01:34:29 437.445
NANOSAT C BR1 02 Apr 01:27:03 01:30:10 19° 280° (W) 01:33:09 145.865
POLYITAN 1 02 Apr 01:35:11 01:37:44 15° 280° (W) 01:40:05 437.675
PHONESAT 2.4 02 Apr 01:41:51 01:44:39 22° 139° (SE) 01:47:30 2401.200-2431.200
SRMSAT 02 Apr 01:50:13 01:54:50 23° 196° (SSW) 01:59:23 437.500
VERMONT LUNAR 02 Apr 02:08:43 02:11:49 33° 317° (NW) 02:14:52 437.305
TISAT 1 02 Apr 02:34:04 02:37:41 26° 259° (W) 02:41:11 437.305
ITUPSAT 1 02 Apr 02:38:12 02:42:12 27° 79° (E) 02:46:18 437.325
JUGNU 02 Apr 02:38:34 02:39:16 10° 185° (S) 02:39:53 437.505
PCSat 02 Apr 02:49:41 02:54:18 28° 249° (WSW) 02:58:48 145.827
Oscar 19 02 Apr 03:01:32 03:06:43 77° 102° (ESE) 03:11:56 437.125/150
YUBILEINY 02 Apr 03:12:22 03:20:40 46° 266° (W) 03:28:50 435.215
PHONESAT 2.4 02 Apr 03:20:07 03:22:55 21° 318° (NW) 03:25:39 2401.200-2431.200
SWISSCUBE 02 Apr 03:23:37 03:28:23 64° 258° (WSW) 03:33:08 437.505
BEESAT 02 Apr 03:25:55 03:30:41 66° 258° (WSW) 03:35:26 436.000
SRMSAT 02 Apr 03:42:40 03:44:48 12° 188° (S) 03:46:50 437.500
Gurwin Techsat 1B 02 Apr 03:46:19 03:51:21 46° 102° (ESE) 03:56:27 435.225
O/OREOS (USA 219) 02 Apr 03:59:19 04:03:49 57° 285° (WNW) 04:08:19 437.305
KKS-1 02 Apr 04:11:48 04:16:11 60° 79° (ENE) 04:20:33 437.445
ITAMSAT 1 02 Apr 04:15:15 04:20:19 59° 282° (WNW) 04:25:24 435.822/435.867
ITUPSAT 1 02 Apr 04:17:02 04:19:59 16° 259° (W) 04:22:41 437.325
JUGNU 02 Apr 04:28:34 04:29:25 10° 175° (S) 04:30:20 437.505
STARS 02 Apr 04:35:01 04:39:24 72° 78° (ENE) 04:43:45 437.465
SO-50 02 Apr 04:47:01 04:48:38 12° 64° (ENE) 04:50:37 436.795
RS-15 02 Apr 04:59:12 05:07:12 22° 65° (ENE) 05:16:15 29.354- 29.394
HORYU 2 02 Apr 05:02:05 05:06:32 66° 101° (E) 05:11:01 437.375
AO-7 02 Apr 05:04:14 05:11:52 43° 105° (ESE) 05:19:40 29.400- 29.500
AIST 1 02 Apr 05:06:15 05:10:26 41° 274° (W) 05:14:35
Gurwin Techsat 1B 02 Apr 05:29:56 05:31:18 11° 280° (W) 05:32:09 435.225
JAS-2 02 Apr 05:43:26 05:50:15 73° 101° (ESE) 05:56:17 435.910
MOZHAYETS 4 02 Apr 06:13:32 06:18:07 72° 79° (E) 06:22:42
JUGNU 02 Apr 06:15:22 06:19:19 19° 166° (SSE) 06:23:21 437.505
SO-50 02 Apr 06:24:42 06:29:10 36° 248° (WSW) 06:33:30 436.795
AO-7 02 Apr 06:57:53 07:04:33 26° 284° (WNW) 07:10:52 29.400- 29.500
AUBIESAT-1 02 Apr 07:03:28 07:07:05 77° 75° (ENE) 07:11:00 437.475
CUTE-I 02 Apr 07:05:32 07:09:20 21° 101° (ESE) 07:13:22 437.470
Cubesat XI-IV 02 Apr 07:06:46 07:10:42 22° 101° (ESE) 07:14:51 437.490
RS-15 02 Apr 07:07:54 07:19:49 66° 248° (WSW) 07:31:56 29.354- 29.394
SRMSAT 02 Apr 07:21:56 07:25:19 15° 168° (SSE) 07:28:48 437.500
PRISM 02 Apr 07:24:11 07:26:31 15° 80° (E) 07:29:05 437.425
GONETS M04 02 Apr 07:30:30 07:38:31 41° 86° (E) 07:46:43
M-CUBED/EXP-1 PRIME 02 Apr 07:31:48 07:35:00 29° 256° (WSW) 07:38:22 437.505
ISS 02 Apr 07:38:31 07:41:22 30° 54° (NE) 07:44:16 145.825
CUSAT 1 02 Apr 07:57:58 08:01:00 14° 87° (E) 08:04:58 437.405
JUGNU 02 Apr 08:03:09 08:08:42 44° 160° (SSE) 08:14:19 437.505
CUBESAT XI-V 02 Apr 08:11:17 08:16:01 77° 259° (WSW) 08:20:44 437.345
BEESAT 3 02 Apr 08:18:55 08:21:00 14° 114° (ESE) 08:23:19 437.485
CUTE-I 02 Apr 08:44:59 08:49:19 25° 281° (WNW) 08:53:30 437.470
Cubesat XI-IV 02 Apr 08:46:28 08:50:43 24° 281° (W) 08:54:47 437.490
STRAND 1 02 Apr 08:54:21 08:59:22 52° 258° (WSW) 09:04:22 437.568
PRISM 02 Apr 08:58:41 09:01:54 20° 259° (W) 09:04:57 437.425
DANDE 02 Apr 09:07:43 09:13:51 56° 87° (E) 09:21:39 436.750
SRMSAT 02 Apr 09:09:42 09:15:03 34° 161° (SSE) 09:20:27 437.500
AIST 2 02 Apr 09:20:24 09:23:31 21° 113° (ESE) 09:26:47 435.215
BEESAT 2 02 Apr 09:22:35 09:26:36 78° 292° (WNW) 09:30:39 435.950
GONETS M04 02 Apr 09:28:12 09:35:16 25° 264° (W) 09:41:54
CUSAT 1 02 Apr 09:36:49 09:43:18 62° 263° (W) 09:51:14 437.405
JUGNU 02 Apr 09:51:56 09:57:47 67° 339° (NNW) 10:03:41 437.505
BEESAT 3 02 Apr 09:55:54 09:58:56 20° 294° (WNW) 10:01:52 437.485
DOVE 4 02 Apr 10:06:18 10:10:46 39° 102° (ESE) 10:15:32 437.250
BRITE-PL 02 Apr 10:09:41 10:14:18 67° 280° (W) 10:19:21 437.365/2234.400
CANX-2 02 Apr 10:10:42 10:14:57 63° 101° (E) 10:19:13 2200.000
HO-68 02 Apr 10:19:09 10:26:19 78° 104° (ESE) 10:33:30 435.675
CUTE 1.7 + AOD 2 02 Apr 10:23:58 10:28:16 87° 100° (E) 10:32:34 437.475
UWE-3 02 Apr 10:28:55 10:30:05 11° 100° (E) 10:31:39 435.000/436.395/437.385
AAUSAT CUBESAT 2 02 Apr 10:33:13 10:37:21 58° 101° (E) 10:41:30 437.432
GOMX 1 02 Apr 10:36:15 10:40:52 51° 280° (W) 10:45:48 467.674
CUBEBUG 2 02 Apr 10:40:04 10:43:36 22° 101° (E) 10:47:20 437.445
SEEDS 02 Apr 10:47:22 10:51:32 52° 281° (W) 10:55:40 437.485
CINEMA 3 02 Apr 10:53:32 10:58:17 75° 100° (E) 11:03:17 145.822/145.860
DANDE 02 Apr 10:53:37 10:57:41 15° 257° (WSW) 11:01:33 436.750
SRMSAT 02 Apr 10:58:21 11:04:22 89° 325° (NW) 11:10:24 437.500
AIST 2 02 Apr 10:59:30 11:02:01 15° 294° (WNW) 11:04:19 435.215
UKube-1 02 Apr 11:02:24 11:04:42 15° 101° (E) 11:07:16 .
COMPASS 1 02 Apr 11:03:51 11:07:48 38° 281° (W) 11:11:43 437.405
DX 1 02 Apr 11:16:49 11:20:22 26° 101° (E) 11:24:04 434.975-435.025
UNISAT 6 02 Apr 11:17:11 11:18:40 12° 80° (E) 11:20:26 437.425
DELFI C3 02 Apr 11:23:11 11:27:15 86° 101° (E) 11:31:19 145.870
TIGRISAT 02 Apr 11:24:39 11:27:01 15° 80° (E) 11:29:35 435.000
Oscar 11 02 Apr 11:28:34 11:32:50 57° 281° (W) 11:37:06 145.826/435.025
JUGNU 02 Apr 11:42:09 11:47:02 26° 343° (NNW) 11:51:52 437.505
FUNcube-1 02 Apr 11:46:53 11:51:25 76° 282° (WNW) 11:56:02 145.935
DOVE 4 02 Apr 11:47:05 11:48:34 11° 278° (W) 11:49:37 437.250
POPSAT HIP 1 02 Apr 11:49:53 11:52:16 15° 80° (E) 11:54:51 437.405
ANTELSAT 02 Apr 11:55:27 11:59:32 46° 79° (E) 12:03:37 437.575/2403.000
NANOSAT C BR1 02 Apr 11:58:05 12:01:08 20° 80° (E) 12:04:20 145.865
CUBEBUG 1 02 Apr 12:02:41 12:04:40 13° 100° (E) 12:06:55 437.445
